TimeEDT,TemperatureF,Dew PointF,Humidity,Sea Level PressureIn,VisibilityMPH,Wind Direction,Wind SpeedMPH,Gust SpeedMPH,PrecipitationIn,Events,Conditions,WindDirDegrees,DateUTC
12:53 AM,75.9,64.9,69,30.04,10.0,WSW,4.6,-,N/A,,Clear,250,2013-07-09 04:53:00
1:53 AM,73.9,66.0,76,30.04,10.0,South,3.5,-,N/A,,Partly Cloudy,190,2013-07-09 05:53:00
2:53 AM,73.9,66.0,76,30.04,10.0,WSW,6.9,-,N/A,,Clear,240,2013-07-09 06:53:00
3:53 AM,73.0,66.0,79,30.04,10.0,WSW,4.6,-,N/A,,Clear,240,2013-07-09 07:53:00
4:53 AM,72.0,66.9,84,30.05,10.0,SW,8.1,-,N/A,,Clear,220,2013-07-09 08:53:00
5:53 AM,71.1,66.9,87,30.06,9.0,West,4.6,-,N/A,,Clear,260,2013-07-09 09:53:00
6:53 AM,73.9,68.0,82,30.07,10.0,SSW,4.6,-,N/A,,Clear,200,2013-07-09 10:53:00
7:53 AM,75.0,68.0,79,30.07,10.0,Calm,Calm,-,N/A,,Clear,0,2013-07-09 11:53:00
8:53 AM,77.0,69.1,76,30.08,10.0,SW,5.8,-,N/A,,Clear,220,2013-07-09 12:53:00
9:53 AM,80.1,69.1,69,30.07,10.0,SSW,5.8,-,N/A,,Clear,200,2013-07-09 13:53:00
10:53 AM,82.0,69.1,65,30.07,10.0,SSE,4.6,-,N/A,,Clear,150,2013-07-09 14:53:00
11:53 AM,82.9,70.0,65,30.07,10.0,South,13.8,-,N/A,,Clear,190,2013-07-09 15:53:00
12:53 PM,82.0,69.1,65,30.06,10.0,SSW,11.5,-,N/A,,Clear,210,2013-07-09 16:53:00
1:37 PM,84.2,69.8,62,30.05,10.0,SSW,10.4,-,N/A,Thunderstorm,Clear,210,2013-07-09 17:37:00
1:53 PM,84.0,69.1,61,30.05,10.0,South,10.4,-,N/A,Thunderstorm,Thunderstorm,190,2013-07-09 17:53:00
2:10 PM,84.2,66.2,55,30.05,10.0,SSW,12.7,-,N/A,,Clear,210,2013-07-09 18:10:00
2:53 PM,84.0,71.1,65,30.04,10.0,South,15.0,-,N/A,,Clear,190,2013-07-09 18:53:00
3:53 PM,82.0,72.0,71,30.03,10.0,SSW,10.4,-,N/A,,Clear,200,2013-07-09 19:53:00
4:53 PM,82.9,71.1,67,30.02,10.0,SW,11.5,-,N/A,,Clear,220,2013-07-09 20:53:00
5:53 PM,81.0,71.1,72,30.01,10.0,SSW,10.4,-,N/A,,Clear,200,2013-07-09 21:53:00
6:53 PM,80.1,71.1,74,30.01,10.0,SSW,11.5,-,N/A,,Clear,210,2013-07-09 22:53:00
7:53 PM,78.1,71.1,79,30.01,10.0,SW,13.8,-,N/A,,Clear,220,2013-07-09 23:53:00
8:53 PM,77.0,71.1,82,30.01,10.0,SW,8.1,-,N/A,,Clear,220,2013-07-10 00:53:00
9:53 PM,78.1,70.0,76,30.03,10.0,SW,8.1,-,N/A,,Clear,220,2013-07-10 01:53:00
10:53 PM,78.1,68.0,71,30.03,10.0,SW,4.6,-,N/A,,Clear,230,2013-07-10 02:53:00
11:53 PM,75.9,69.1,79,30.04,10.0,South,4.6,-,N/A,,Mostly Cloudy,190,2013-07-10 03:53:00